Zurück zum Katalog

ONEWEB-0587

AktivKommunikationPO
NORAD 54654·PAYLOAD·🇬🇧 United Kingdom

Gestartet Dec 8, 2022 von Cape Canaveral Space Force Station

Loading…

Nächste Überflüge (nächste 24 Stunden)

TLE

AktuellSource: CelesTrak SupGP

Epoche: Sep 14, 2026, 13:20 UTC

1 54654C 22166N   26257.55572176 -.00001314  00000+0 -31853-2 0  2570
2 54654  87.9283 226.1867 0001877  76.1198  36.5590 13.21826719    19

Verfolge ONEWEB-0587 in Echtzeit mit AllMySat

Download on the App Store